Time,TemperatureF,DewpointF,PressureIn,WindDirection,WindDirectionDegrees,WindSpeedMPH,WindSpeedGustMPH,Humidity,HourlyPrecipIn,Conditions,Clouds,dailyrainin,SoftwareType,DateUTC
2013-09-27 00:00:00,83.0,76.0,-100.00,SE,140,17.0,-999.0,78,0.00,,,-99.99,,2013-09-27 05:00:00,
2013-09-27 00:23:00,83.0,76.0,-100.00,SE,140,17.0,-999.0,78,0.00,,,-99.99,,2013-09-27 05:23:00,
2013-09-27 00:34:00,83.0,76.0,-100.00,SE,140,17.0,-999.0,78,0.00,,,-99.99,,2013-09-27 05:34:00,
2013-09-27 00:43:00,83.0,76.0,-100.00,SE,140,17.0,-999.0,78,0.00,,,-99.99,,2013-09-27 05:43:00,
2013-09-27 00:52:00,83.0,76.0,-100.00,SE,140,17.0,-999.0,78,0.00,,,-99.99,,2013-09-27 05:52:00,
2013-09-27 01:00:00,83.0,77.0,-100.00,SE,145,16.0,-999.0,81,0.00,,,-99.99,,2013-09-27 06:00:00,
2013-09-27 01:22:00,83.0,77.0,-100.00,SE,145,16.0,-999.0,81,0.00,,,-99.99,,2013-09-27 06:22:00,
2013-09-27 01:32:00,83.0,77.0,-100.00,SE,145,16.0,-999.0,81,0.00,,,-99.99,,2013-09-27 06:32:00,
2013-09-27 01:43:00,83.0,77.0,-100.00,SE,145,16.0,-999.0,81,0.00,,,-99.99,,2013-09-27 06:43:00,
2013-09-27 01:52:00,83.0,77.0,-100.00,SE,145,16.0,-999.0,81,0.00,,,-99.99,,2013-09-27 06:52:00,
2013-09-27 02:00:00,83.0,76.0,-100.00,SSE,147,15.0,-999.0,81,0.00,,,-99.99,,2013-09-27 07:00:00,
2013-09-27 02:22:00,83.0,76.0,-100.00,SSE,147,15.0,-999.0,81,0.00,,,-99.99,,2013-09-27 07:22:00,
2013-09-27 02:32:00,83.0,76.0,-100.00,SSE,147,15.0,-999.0,81,0.00,,,-99.99,,2013-09-27 07:32:00,
2013-09-27 02:43:00,83.0,76.0,-100.00,SSE,147,15.0,-999.0,81,0.00,,,-99.99,,2013-09-27 07:43:00,
2013-09-27 02:53:00,83.0,76.0,-100.00,SSE,147,15.0,-999.0,81,0.00,,,-99.99,,2013-09-27 07:53:00,
2013-09-27 03:00:00,83.0,77.0,-100.00,SE,145,15.0,-999.0,83,0.00,,,-99.99,,2013-09-27 08:00:00,
2013-09-27 03:22:00,83.0,77.0,-100.00,SE,145,15.0,-999.0,83,0.00,,,-99.99,,2013-09-27 08:22:00,
2013-09-27 03:32:00,83.0,77.0,-100.00,SE,145,15.0,-999.0,83,0.00,,,-99.99,,2013-09-27 08:32:00,
2013-09-27 03:42:00,83.0,77.0,-100.00,SE,145,15.0,-999.0,83,0.00,,,-99.99,,2013-09-27 08:42:00,
2013-09-27 03:52:00,83.0,77.0,-100.00,SE,145,15.0,-999.0,83,0.00,,,-99.99,,2013-09-27 08:52:00,
2013-09-27 04:00:00,82.0,76.0,-100.00,SE,142,15.0,-999.0,82,0.00,,,-99.99,,2013-09-27 09:00:00,
2013-09-27 04:22:00,82.0,76.0,-100.00,SE,142,15.0,-999.0,82,0.00,,,-99.99,,2013-09-27 09:22:00,
2013-09-27 04:33:00,82.0,76.0,-100.00,SE,142,15.0,-999.0,82,0.00,,,-99.99,,2013-09-27 09:33:00,
2013-09-27 04:44:00,82.0,76.0,-100.00,SE,142,15.0,-999.0,82,0.00,,,-99.99,,2013-09-27 09:44:00,
2013-09-27 04:54:00,82.0,76.0,-100.00,SE,142,15.0,-999.0,82,0.00,,,-99.99,,2013-09-27 09:54:00,
2013-09-27 05:00:00,82.0,77.0,-100.00,SSE,151,16.0,-999.0,84,0.00,,,-99.99,,2013-09-27 10:00:00,
2013-09-27 05:23:00,82.0,77.0,-100.00,SSE,151,16.0,-999.0,84,0.00,,,-99.99,,2013-09-27 10:23:00,
2013-09-27 05:33:00,82.0,77.0,-100.00,SSE,151,16.0,-999.0,84,0.00,,,-99.99,,2013-09-27 10:33:00,
2013-09-27 05:42:00,82.0,77.0,-100.00,SSE,151,16.0,-999.0,84,0.00,,,-99.99,,2013-09-27 10:42:00,
2013-09-27 05:52:00,82.0,77.0,-100.00,SSE,151,16.0,-999.0,84,0.00,,,-99.99,,2013-09-27 10:52:00,
2013-09-27 06:00:00,82.0,77.0,-100.00,SSE,156,14.0,-999.0,84,0.00,,,-99.99,,2013-09-27 11:00:00,
2013-09-27 06:22:00,82.0,77.0,-100.00,SSE,156,14.0,-999.0,84,0.00,,,-99.99,,2013-09-27 11:22:00,
2013-09-27 06:33:00,82.0,77.0,-100.00,SSE,156,14.0,-999.0,84,0.00,,,-99.99,,2013-09-27 11:33:00,
2013-09-27 06:43:00,82.0,77.0,-100.00,SSE,156,14.0,-999.0,84,0.00,,,-99.99,,2013-09-27 11:43:00,
2013-09-27 06:52:00,82.0,77.0,-100.00,SSE,156,14.0,-999.0,84,0.00,,,-99.99,,2013-09-27 11:52:00,
2013-09-27 07:21:00,82.0,78.0,-100.00,SE,143,14.0,-999.0,86,0.00,,,-99.99,,2013-09-27 12:21:00,
2013-09-27 07:32:00,82.0,78.0,-100.00,SE,143,14.0,-999.0,86,0.00,,,-99.99,,2013-09-27 12:32:00,
2013-09-27 07:42:00,82.0,78.0,-100.00,SE,143,14.0,-999.0,86,0.00,,,-99.99,,2013-09-27 12:42:00,
2013-09-27 07:52:00,82.0,78.0,-100.00,SE,143,14.0,-999.0,86,0.00,,,-99.99,,2013-09-27 12:52:00,
2013-09-27 08:00:00,83.0,78.0,-100.00,SE,136,15.0,-999.0,87,0.00,,,-99.99,,2013-09-27 13:00:00,
2013-09-27 08:22:00,83.0,78.0,-100.00,SE,136,15.0,-999.0,87,0.00,,,-99.99,,2013-09-27 13:22:00,
2013-09-27 08:32:00,83.0,78.0,-100.00,SE,136,15.0,-999.0,87,0.00,,,-99.99,,2013-09-27 13:32:00,
2013-09-27 08:42:00,83.0,78.0,-100.00,SE,136,15.0,-999.0,87,0.00,,,-99.99,,2013-09-27 13:42:00,
2013-09-27 08:53:00,83.0,78.0,-100.00,SE,136,15.0,-999.0,87,0.00,,,-99.99,,2013-09-27 13:53:00,
2013-09-27 09:00:00,83.0,79.0,-100.00,SE,131,14.0,-999.0,87,0.00,,,-99.99,,2013-09-27 14:00:00,
2013-09-27 09:22:00,83.0,79.0,-100.00,SE,131,14.0,-999.0,87,0.00,,,-99.99,,2013-09-27 14:22:00,
2013-09-27 09:32:00,83.0,79.0,-100.00,SE,131,14.0,-999.0,87,0.00,,,-99.99,,2013-09-27 14:32:00,
2013-09-27 09:42:00,83.0,79.0,-100.00,SE,131,14.0,-999.0,87,0.00,,,-99.99,,2013-09-27 14:42:00,
2013-09-27 09:52:00,83.0,79.0,-100.00,SE,131,14.0,-999.0,87,0.00,,,-99.99,,2013-09-27 14:52:00,
2013-09-27 10:00:00,83.0,79.0,-100.00,SE,134,15.0,-999.0,86,0.00,,,-99.99,,2013-09-27 15:00:00,
2013-09-27 10:22:00,83.0,79.0,-100.00,SE,134,15.0,-999.0,86,0.00,,,-99.99,,2013-09-27 15:22:00,
2013-09-27 10:33:00,83.0,79.0,-100.00,SE,134,15.0,-999.0,86,0.00,,,-99.99,,2013-09-27 15:33:00,
2013-09-27 10:44:00,83.0,79.0,-100.00,SE,134,15.0,-999.0,86,0.00,,,-99.99,,2013-09-27 15:44:00,
2013-09-27 10:54:00,83.0,79.0,-100.00,SE,134,15.0,-999.0,86,0.00,,,-99.99,,2013-09-27 15:54:00,
2013-09-27 11:00:00,84.0,78.0,-100.00,SE,131,16.0,-999.0,84,0.00,,,-99.99,,2013-09-27 16:00:00,
2013-09-27 11:24:00,84.0,78.0,-100.00,SE,131,16.0,-999.0,84,0.00,,,-99.99,,2013-09-27 16:24:00,
2013-09-27 11:34:00,84.0,78.0,-100.00,SE,131,16.0,-999.0,84,0.00,,,-99.99,,2013-09-27 16:34:00,
2013-09-27 11:44:00,84.0,78.0,-100.00,SE,131,16.0,-999.0,84,0.00,,,-99.99,,2013-09-27 16:44:00,
2013-09-27 11:53:00,84.0,78.0,-100.00,SE,131,16.0,-999.0,84,0.00,,,-99.99,,2013-09-27 16:53:00,
2013-09-27 12:00:00,84.0,79.0,-100.00,SE,129,16.0,-999.0,84,0.00,,,-99.99,,2013-09-27 17:00:00,
2013-09-27 12:23:00,84.0,79.0,-100.00,SE,129,16.0,-999.0,84,0.00,,,-99.99,,2013-09-27 17:23:00,
2013-09-27 12:34:00,84.0,79.0,-100.00,SE,129,16.0,-999.0,84,0.00,,,-99.99,,2013-09-27 17:34:00,
2013-09-27 12:43:00,84.0,79.0,-100.00,SE,129,16.0,-999.0,84,0.00,,,-99.99,,2013-09-27 17:43:00,
2013-09-27 12:52:00,84.0,79.0,-100.00,SE,129,16.0,-999.0,84,0.00,,,-99.99,,2013-09-27 17:52:00,
2013-09-27 13:00:00,84.0,78.0,-100.00,SE,137,17.0,-999.0,83,0.00,,,-99.99,,2013-09-27 18:00:00,
2013-09-27 13:22:00,84.0,78.0,-100.00,SE,137,17.0,-999.0,83,0.00,,,-99.99,,2013-09-27 18:22:00,
2013-09-27 13:33:00,84.0,78.0,-100.00,SE,137,17.0,-999.0,83,0.00,,,-99.99,,2013-09-27 18:33:00,
2013-09-27 13:43:00,84.0,78.0,-100.00,SE,137,17.0,-999.0,83,0.00,,,-99.99,,2013-09-27 18:43:00,
2013-09-27 13:52:00,84.0,78.0,-100.00,SE,137,17.0,-999.0,83,0.00,,,-99.99,,2013-09-27 18:52:00,
2013-09-27 14:00:00,84.0,78.0,-100.00,SE,134,15.0,-999.0,83,0.00,,,-99.99,,2013-09-27 19:00:00,
2013-09-27 14:22:00,84.0,78.0,-100.00,SE,134,15.0,-999.0,83,0.00,,,-99.99,,2013-09-27 19:22:00,
2013-09-27 14:32:00,84.0,78.0,-100.00,SE,134,15.0,-999.0,83,0.00,,,-99.99,,2013-09-27 19:32:00,
2013-09-27 14:43:00,84.0,78.0,-100.00,SE,134,15.0,-999.0,83,0.00,,,-99.99,,2013-09-27 19:43:00,
2013-09-27 14:53:00,84.0,78.0,-100.00,SE,134,15.0,-999.0,83,0.00,,,-99.99,,2013-09-27 19:53:00,
2013-09-27 15:00:00,82.0,78.0,-100.00,ESE,110,14.0,-999.0,86,0.00,,,-99.99,,2013-09-27 20:00:00,
2013-09-27 15:22:00,82.0,78.0,-100.00,ESE,110,14.0,-999.0,86,0.00,,,-99.99,,2013-09-27 20:22:00,
2013-09-27 15:32:00,82.0,78.0,-100.00,ESE,110,14.0,-999.0,86,0.00,,,-99.99,,2013-09-27 20:32:00,
2013-09-27 15:43:00,82.0,78.0,-100.00,ESE,110,14.0,-999.0,86,0.00,,,-99.99,,2013-09-27 20:43:00,
2013-09-27 15:52:00,82.0,78.0,-100.00,ESE,110,14.0,-999.0,86,0.00,,,-99.99,,2013-09-27 20:52:00,
2013-09-27 16:00:00,84.0,79.0,-100.00,SE,125,15.0,-999.0,85,0.00,,,-99.99,,2013-09-27 21:00:00,
2013-09-27 16:22:00,84.0,79.0,-100.00,SE,125,15.0,-999.0,85,0.00,,,-99.99,,2013-09-27 21:22:00,
2013-09-27 16:34:00,84.0,79.0,-100.00,SE,125,15.0,-999.0,85,0.00,,,-99.99,,2013-09-27 21:34:00,
2013-09-27 16:44:00,84.0,79.0,-100.00,SE,125,15.0,-999.0,85,0.00,,,-99.99,,2013-09-27 21:44:00,
2013-09-27 16:54:00,84.0,79.0,-100.00,SE,125,15.0,-999.0,85,0.00,,,-99.99,,2013-09-27 21:54:00,
2013-09-27 17:00:00,84.0,79.0,-100.00,ESE,117,16.0,-999.0,85,0.00,,,-99.99,,2013-09-27 22:00:00,
2013-09-27 17:24:00,84.0,79.0,-100.00,ESE,117,16.0,-999.0,85,0.00,,,-99.99,,2013-09-27 22:24:00,
2013-09-27 17:34:00,84.0,79.0,-100.00,ESE,117,16.0,-999.0,85,0.00,,,-99.99,,2013-09-27 22:34:00,
2013-09-27 17:43:00,84.0,79.0,-100.00,ESE,117,16.0,-999.0,85,0.00,,,-99.99,,2013-09-27 22:43:00,
2013-09-27 17:53:00,84.0,79.0,-100.00,ESE,117,16.0,-999.0,85,0.00,,,-99.99,,2013-09-27 22:53:00,
2013-09-27 18:00:00,84.0,79.0,-100.00,ESE,123,16.0,-999.0,86,0.00,,,-99.99,,2013-09-27 23:00:00,
2013-09-27 18:22:00,84.0,79.0,-100.00,ESE,123,16.0,-999.0,86,0.00,,,-99.99,,2013-09-27 23:22:00,
2013-09-27 18:34:00,84.0,79.0,-100.00,ESE,123,16.0,-999.0,86,0.00,,,-99.99,,2013-09-27 23:34:00,
2013-09-27 18:43:00,84.0,79.0,-100.00,ESE,123,16.0,-999.0,86,0.00,,,-99.99,,2013-09-27 23:43:00,
2013-09-27 18:53:00,84.0,79.0,-100.00,ESE,123,16.0,-999.0,86,0.00,,,-99.99,,2013-09-27 23:53:00,
2013-09-27 19:00:00,84.0,80.0,-100.00,ESE,113,17.0,-999.0,88,0.00,,,-99.99,,2013-09-28 00:00:00,
2013-09-27 19:22:00,84.0,80.0,-100.00,ESE,113,17.0,-999.0,88,0.00,,,-99.99,,2013-09-28 00:22:00,
2013-09-27 19:32:00,84.0,80.0,-100.00,ESE,113,17.0,-999.0,88,0.00,,,-99.99,,2013-09-28 00:32:00,
2013-09-27 19:42:00,84.0,80.0,-100.00,ESE,113,17.0,-999.0,88,0.00,,,-99.99,,2013-09-28 00:42:00,
2013-09-27 19:52:00,84.0,80.0,-100.00,ESE,113,17.0,-999.0,88,0.00,,,-99.99,,2013-09-28 00:52:00,
2013-09-27 20:00:00,84.0,80.0,-100.00,ESE,112,18.0,-999.0,88,0.00,,,-99.99,,2013-09-28 01:00:00,
2013-09-27 20:22:00,84.0,80.0,-100.00,ESE,112,18.0,-999.0,88,0.00,,,-99.99,,2013-09-28 01:22:00,
2013-09-27 20:32:00,84.0,80.0,-100.00,ESE,112,18.0,-999.0,88,0.00,,,-99.99,,2013-09-28 01:32:00,
2013-09-27 20:42:00,84.0,80.0,-100.00,ESE,112,18.0,-999.0,88,0.00,,,-99.99,,2013-09-28 01:42:00,
2013-09-27 20:52:00,84.0,80.0,-100.00,ESE,112,18.0,-999.0,88,0.00,,,-99.99,,2013-09-28 01:52:00,
2013-09-27 21:00:00,83.0,80.0,-100.00,ESE,115,19.0,-999.0,89,0.00,,,-99.99,,2013-09-28 02:00:00,
2013-09-27 21:22:00,83.0,80.0,-100.00,ESE,115,19.0,-999.0,89,0.00,,,-99.99,,2013-09-28 02:22:00,
2013-09-27 21:32:00,83.0,80.0,-100.00,ESE,115,19.0,-999.0,89,0.00,,,-99.99,,2013-09-28 02:32:00,
2013-09-27 21:42:00,83.0,80.0,-100.00,ESE,115,19.0,-999.0,89,0.00,,,-99.99,,2013-09-28 02:42:00,
2013-09-27 21:53:00,83.0,80.0,-100.00,ESE,115,19.0,-999.0,89,0.00,,,-99.99,,2013-09-28 02:53:00,
2013-09-27 22:00:00,84.0,80.0,-100.00,ESE,117,19.0,-999.0,88,0.00,,,-99.99,,2013-09-28 03:00:00,
2013-09-27 22:22:00,84.0,80.0,-100.00,ESE,117,19.0,-999.0,88,0.00,,,-99.99,,2013-09-28 03:22:00,
2013-09-27 22:34:00,84.0,80.0,-100.00,ESE,117,19.0,-999.0,88,0.00,,,-99.99,,2013-09-28 03:34:00,
2013-09-27 22:45:00,84.0,80.0,-100.00,ESE,117,19.0,-999.0,88,0.00,,,-99.99,,2013-09-28 03:45:00,
2013-09-27 22:55:00,84.0,80.0,-100.00,ESE,117,19.0,-999.0,88,0.00,,,-99.99,,2013-09-28 03:55:00,
2013-09-27 23:00:00,83.0,80.0,-100.00,ESE,123,20.0,-999.0,88,0.00,,,-99.99,,2013-09-28 04:00:00,
2013-09-27 23:25:00,83.0,80.0,-100.00,ESE,123,20.0,-999.0,88,0.00,,,-99.99,,2013-09-28 04:25:00,
2013-09-27 23:34:00,83.0,80.0,-100.00,ESE,123,20.0,-999.0,88,0.00,,,-99.99,,2013-09-28 04:34:00,
2013-09-27 23:43:00,83.0,80.0,-100.00,ESE,123,20.0,-999.0,88,0.00,,,-99.99,,2013-09-28 04:43:00,
2013-09-27 23:54:00,83.0,80.0,-100.00,ESE,123,20.0,-999.0,88,0.00,,,-99.99,,2013-09-28 04:54:00,